Time,TemperatureF,DewpointF,PressureIn,WindDirection,WindDirectionDegrees,WindSpeedMPH,WindSpeedGustMPH,Humidity,HourlyPrecipIn,Conditions,Clouds,dailyrainin,SoftwareType,DateUTC
2013-01-26 00:00:00,13.0,7.4,29.64,NNW,338,6.0,13.0,78,0.00,,,-99.99,Weather View 32 v60,2013-01-26 06:00:00,
2013-01-26 00:30:00,13.0,7.4,29.65,NW,315,3.0,11.0,78,0.00,,,-99.99,Weather View 32 v60,2013-01-26 06:30:00,
2013-01-26 01:00:00,13.0,7.4,29.66,WNW,292,5.0,10.0,78,0.00,,,-99.99,Weather View 32 v60,2013-01-26 07:00:00,
2013-01-26 01:30:00,12.0,6.7,29.67,NNW,338,3.0,10.0,79,0.00,,,-99.99,Weather View 32 v60,2013-01-26 07:30:00,
2013-01-26 02:00:00,11.0,6.0,29.68,WNW,292,5.0,12.0,80,0.00,,,-99.99,Weather View 32 v60,2013-01-26 08:00:00,
2013-01-26 02:30:00,11.0,6.3,29.68,NNW,338,0.0,12.0,81,0.00,,,-99.99,Weather View 32 v60,2013-01-26 08:30:00,
2013-01-26 03:00:00,11.0,6.3,29.68,NW,315,4.0,11.0,81,0.00,,,-99.99,Weather View 32 v60,2013-01-26 09:00:00,
2013-01-26 03:30:00,10.0,5.3,29.68,NW,315,2.0,11.0,81,0.00,,,-99.99,Weather View 32 v60,2013-01-26 09:30:00,
2013-01-26 04:00:00,9.0,4.6,29.68,North,0,0.0,9.0,82,0.00,,,-99.99,Weather View 32 v60,2013-01-26 10:00:00,
2013-01-26 04:30:00,9.0,5.2,29.69,North,0,0.0,8.0,84,0.00,,,-99.99,Weather View 32 v60,2013-01-26 10:30:00,
2013-01-26 05:00:00,8.0,4.2,29.70,North,0,0.0,7.0,84,0.00,,,-99.99,Weather View 32 v60,2013-01-26 11:00:00,
2013-01-26 05:30:00,7.0,2.7,29.71,SSW,202,0.0,6.0,82,0.00,,,-99.99,Weather View 32 v60,2013-01-26 11:30:00,
2013-01-26 06:00:00,6.0,2.5,29.73,WSW,248,2.0,6.0,85,0.00,,,-99.99,Weather View 32 v60,2013-01-26 12:00:00,
2013-01-26 06:30:00,6.0,2.5,29.75,West,270,4.0,7.0,85,0.00,,,-99.99,Weather View 32 v60,2013-01-26 12:30:00,
2013-01-26 07:00:00,7.0,3.5,29.76,SW,225,1.0,7.0,85,0.00,,,-99.99,Weather View 32 v60,2013-01-26 13:00:00,
2013-01-26 07:30:00,8.0,3.7,29.77,West,270,4.0,7.0,82,0.00,,,-99.99,Weather View 32 v60,2013-01-26 13:30:00,
2013-01-26 08:00:00,10.0,4.8,29.78,West,270,5.0,9.0,79,0.00,,,-99.99,Weather View 32 v60,2013-01-26 14:00:00,
2013-01-26 08:30:00,12.0,5.3,29.78,NNW,338,3.0,9.0,74,0.00,,,-99.99,Weather View 32 v60,2013-01-26 14:30:00,
2013-01-26 09:00:00,15.0,7.0,29.80,WNW,292,2.0,8.0,70,0.00,,,-99.99,Weather View 32 v60,2013-01-26 15:00:00,
2013-01-26 09:30:00,17.0,6.9,29.79,NNE,22,3.0,6.0,64,0.00,,,-99.99,Weather View 32 v60,2013-01-26 15:30:00,
2013-01-26 10:00:00,19.0,8.1,29.79,NW,315,2.0,5.0,62,0.00,,,-99.99,Weather View 32 v60,2013-01-26 16:00:00,
2013-01-26 10:30:00,21.0,9.3,29.78,WSW,248,1.0,5.0,60,0.00,,,-99.99,Weather View 32 v60,2013-01-26 16:30:00,
2013-01-26 11:00:00,21.0,8.9,29.78,SW,225,3.0,6.0,59,0.00,,,-99.99,Weather View 32 v60,2013-01-26 17:00:00,
2013-01-26 11:30:00,23.0,10.0,29.77,WNW,292,1.0,7.0,57,0.00,,,-99.99,Weather View 32 v60,2013-01-26 17:30:00,
2013-01-26 12:00:00,24.0,10.2,29.77,West,270,3.0,7.0,55,0.00,,,-99.99,Weather View 32 v60,2013-01-26 18:00:00,
2013-01-26 12:30:00,25.0,11.1,29.76,NNW,338,1.0,6.0,55,0.00,,,-99.99,Weather View 32 v60,2013-01-26 18:30:00,
2013-01-26 13:00:00,24.0,9.8,29.76,SE,135,3.0,7.0,54,0.00,,,-99.99,Weather View 32 v60,2013-01-26 19:00:00,
2013-01-26 13:30:00,25.0,9.8,29.75,South,180,3.0,7.0,52,0.00,,,-99.99,Weather View 32 v60,2013-01-26 19:30:00,
2013-01-26 14:00:00,25.0,10.7,29.76,South,180,3.0,7.0,54,0.00,,,-99.99,Weather View 32 v60,2013-01-26 20:00:00,
2013-01-26 14:30:00,25.0,11.1,29.76,SSW,202,2.0,8.0,55,0.00,,,-99.99,Weather View 32 v60,2013-01-26 20:30:00,
2013-01-26 15:00:00,26.0,11.6,29.74,South,180,3.0,8.0,54,0.00,,,-99.99,Weather View 32 v60,2013-01-26 21:00:00,
2013-01-26 15:30:00,25.0,11.5,29.74,SSW,202,4.0,8.0,56,0.00,,,-99.99,Weather View 32 v60,2013-01-26 21:30:00,
2013-01-26 16:00:00,24.0,11.0,29.74,SSE,158,1.0,8.0,57,0.00,,,-99.99,Weather View 32 v60,2013-01-26 22:00:00,
2013-01-26 16:30:00,24.0,11.4,29.74,South,180,2.0,6.0,58,0.00,,,-99.99,Weather View 32 v60,2013-01-26 22:30:00,
2013-01-26 17:00:00,24.0,12.5,29.74,SE,135,1.0,5.0,61,0.00,,,-99.99,Weather View 32 v60,2013-01-26 23:00:00,
2013-01-26 17:30:00,24.0,12.9,29.75,SSE,158,1.0,6.0,62,0.00,,,-99.99,Weather View 32 v60,2013-01-26 23:30:00,
2013-01-26 18:00:00,24.0,12.5,29.75,South,180,1.0,6.0,61,0.00,,,-99.99,Weather View 32 v60,2013-01-27 00:00:00,
2013-01-26 18:30:00,24.0,12.1,29.75,SE,135,3.0,8.0,60,0.00,,,-99.99,Weather View 32 v60,2013-01-27 00:30:00,
2013-01-26 19:00:00,23.0,11.6,29.74,SE,135,3.0,8.0,61,0.00,,,-99.99,Weather View 32 v60,2013-01-27 01:00:00,
2013-01-26 19:30:00,23.0,11.6,29.74,SE,135,3.0,9.0,61,0.00,,,-99.99,Weather View 32 v60,2013-01-27 01:30:00,
2013-01-26 20:00:00,23.0,11.9,29.75,ESE,112,4.0,9.0,62,0.00,,,-99.99,Weather View 32 v60,2013-01-27 02:00:00,
2013-01-26 20:30:00,23.0,12.6,29.73,ESE,112,3.0,7.0,64,0.00,,,-99.99,Weather View 32 v60,2013-01-27 02:30:00,
2013-01-26 21:00:00,23.0,12.6,29.73,SE,135,5.0,8.0,64,0.00,,,-99.99,Weather View 32 v60,2013-01-27 03:00:00,
2013-01-26 21:30:00,24.0,13.6,29.71,SE,135,3.0,9.0,64,0.00,,,-99.99,Weather View 32 v60,2013-01-27 03:30:00,
2013-01-26 22:00:00,24.0,13.2,29.71,SSW,202,5.0,10.0,63,0.00,,,-99.99,Weather View 32 v60,2013-01-27 04:00:00,
2013-01-26 22:30:00,25.0,13.8,29.71,SSE,158,3.0,11.0,62,0.00,,,-99.99,Weather View 32 v60,2013-01-27 04:30:00,
2013-01-26 23:00:00,25.0,14.5,29.71,South,180,6.0,11.0,64,0.00,,,-99.99,Weather View 32 v60,2013-01-27 05:00:00,
2013-01-26 23:30:00,25.0,14.9,29.69,South,180,5.0,11.0,65,0.00,,,-99.99,Weather View 32 v60,2013-01-27 05:30:00,